Tracking 29892 objects as of 21-Nov-2024
HD Live streaming from Space Station
objects crossing your sky now

STARLINK-4480

Track STARLINK-4480 now!
10-day predictions
STARLINK-4480 is classified as:


NORAD ID: 53416
Int'l Code: 2022-097AE
Perigee: 546.3 km
Apogee: 547.6 km
Inclination: 53.2 °
Period: 95.4 minutes
Semi major axis: 6917 km
RCS: Unknown
Launch date: August 10, 2022
Source: United States (US)
Launch site: AIR FORCE EASTERN TEST RANGE (AFETR)
Your satellite tracking list
Your tracking list is empty




NASA's NSSDC Master Catalog

Two Line Element Set (TLE):
1 53416U 22097AE  24325.99375431  .00000291  00000-0  36348-4 0  9996
2 53416  53.2177  80.5716 0000953 106.0646 254.0451 15.08821429126654
Source of the keplerian elements: AFSPC